Погода в Лапыгино

Россия / Белгородская область     51°21′41″N   37°57′32″E
темп.,
°C
ветер,
м/с
пор.,
м/с
влажн.,
%
обл.,
%
осадки,
мм/ч
давл.,
гПа
погр.,
м
27 января, чт
чт2700:00−17зсз1110093 0.1 10199
03:00−20зсз11100100 0.1 10209
06:00−19з0010099 0.1 10209
09:00−19ююз0010091 0.1 102016
12:00−11юз1193100 0.1 1020168
15:00−9ююз229199 0.1 1019260
18:00−16ю22100100 0.0 10199
21:00−18ю2210090 0.0 101912
28 января, пт
пт2800:00−21ю22100100 0.0 101816
03:00−20ююв23100100 0.1 101734
06:00−15ююв399786 0.1 1015181
09:00−11ю51195100 0.2 1014252
12:00−7ю61093100 0.1 1011325
15:00−4ю61396100 0.6 1009519
18:00−2ю61396100 0.8 1008588
21:00−1ююз5119693 1.1 1007508
29 января, сб
сб2900:00−1юз4895100 0.1 1007606
03:00−1ююз389796 0.6 1007343
06:00−5ю249993 0.1 100664
09:00−2ююз4997100 0.3 1006375
12:00−1юз579498 0.3 1006487
15:000юз4810098 0.6 1006579
18:00−2зюз5109587 0.4 1008492
21:00−4з6119394 0.5 1009420
30 января, вс
вс3000:00−5з6119494 0.1 1010412
03:00−6з5119382 0.3 1011389
06:00−10юз499799 0.1 1010150
09:00−6ююз71495100 0.1 1007555
12:00−4ююз81689100 0.1 1004692
15:00−4ююз101991100 0.2 1000973
18:00−2ююз91794100 1.1 9971050
21:00−1ююз81496100 1.6 995728
31 января, пн
пн3100:00−2ююз71496100 0.8 994694
03:00−1ююз91486100 0.8 993934
06:00−2ю81696100 0.3 990851
09:00−1ююз81696100 0.9 9891013
12:00−1юз81396100 1.1 9901014
15:00−1зюз91489100 1.5 992881
18:00−4зюз81488100 0.1 996748
21:00−5зюз71392100 0.3 998740